iso_date,epoch_date,Year,Hour,Min,DOY,POS_DOY,Lat,Lon,BP,Ts,Ta,has_bp,has_ts,has_ta,BuoyID,Buoy_Type,Buoy_Owner,Logistics,Hemisphere
2020-09-05T18:00:00Z,1599328800,2020,18,0,249.75,249.75,61.401,-51.649,-999.00,8.65,-999.0,no,yes,no,300234068342550,SVPGHI,AOML,MARIA_S._MERI,North
2020-09-05T19:00:02Z,1599332403,2020,19,0,249.7917,249.7917,61.406,-51.66,-999.00,8.66,-999.0,no,yes,no,300234068342550,SVPGHI,AOML,MARIA_S._MERI,North
2020-09-05T19:59:57Z,1599335997,2020,20,0,249.8333,249.8333,61.412,-51.671,-999.00,8.67,-999.0,no,yes,no,300234068342550,SVPGHI,AOML,MARIA_S._MERI,North
2020-09-05T21:01:00Z,1599339660,2020,21,1,249.8757,249.8757,61.417,-51.678,-999.00,8.66,-999.0,no,yes,no,300234068342550,SVPGHI,AOML,MARIA_S._MERI,North
2020-09-05T22:00:02Z,1599343203,2020,22,0,249.9167,249.9167,61.425,-51.688,-999.00,8.67,-999.0,no,yes,no,300234068342550,SVPGHI,AOML,MARIA_S._MERI,North
2020-09-05T22:59:57Z,1599346797,2020,23,0,249.9583,249.9583,61.43,-51.698,-999.00,8.67,-999.0,no,yes,no,300234068342550,SVPGHI,AOML,MARIA_S._MERI,North
2020-09-06T00:01:00Z,1599350460,2020,0,1,250.0007,250.0007,61.437,-51.71,-999.00,8.67,-999.0,no,yes,no,300234068342550,SVPGHI,AOML,MARIA_S._MERI,North
2020-09-06T01:00:02Z,1599354003,2020,1,0,250.0417,250.0417,61.443,-51.719,-999.00,8.66,-999.0,no,yes,no,300234068342550,SVPGHI,AOML,MARIA_S._MERI,North
2020-09-06T01:59:57Z,1599357597,2020,2,0,250.0833,250.0833,61.447,-51.726,-999.00,8.66,-999.0,no,yes,no,300234068342550,SVPGHI,AOML,MARIA_S._MERI,North
2020-09-06T03:00:00Z,1599361200,2020,3,0,250.125,250.125,61.45,-51.737,-999.00,8.66,-999.0,no,yes,no,300234068342550,SVPGHI,AOML,MARIA_S._MERI,North
2020-09-06T04:00:02Z,1599364803,2020,4,0,250.1667,250.1667,61.456,-51.747,-999.00,8.66,-999.0,no,yes,no,300234068342550,SVPGHI,AOML,MARIA_S._MERI,North
2020-09-06T04:59:57Z,1599368397,2020,5,0,250.2083,250.2083,61.456,-51.756,-999.00,8.66,-999.0,no,yes,no,300234068342550,SVPGHI,AOML,MARIA_S._MERI,North
2020-09-06T06:00:00Z,1599372000,2020,6,0,250.25,250.25,61.461,-51.762,-999.00,8.65,-999.0,no,yes,no,300234068342550,SVPGHI,AOML,MARIA_S._MERI,North
2020-09-06T07:00:02Z,1599375603,2020,7,0,250.2917,250.2917,61.466,-51.768,-999.00,8.65,-999.0,no,yes,no,300234068342550,SVPGHI,AOML,MARIA_S._MERI,North
2020-09-06T07:59:57Z,1599379197,2020,8,0,250.3333,250.3333,61.472,-51.774,-999.00,8.65,-999.0,no,yes,no,300234068342550,SVPGHI,AOML,MARIA_S._MERI,North
2020-09-06T09:00:00Z,1599382800,2020,9,0,250.375,250.375,61.478,-51.787,-999.00,8.64,-999.0,no,yes,no,300234068342550,SVPGHI,AOML,MARIA_S._MERI,North
2020-09-06T10:00:02Z,1599386403,2020,10,0,250.4167,250.4167,61.483,-51.799,-999.00,8.64,-999.0,no,yes,no,300234068342550,SVPGHI,AOML,MARIA_S._MERI,North
2020-09-06T11:01:58Z,1599390118,2020,11,2,250.4597,250.4597,61.494,-51.808,-999.00,8.65,-999.0,no,yes,no,300234068342550,SVPGHI,AOML,MARIA_S._MERI,North
2020-09-06T12:00:00Z,1599393600,2020,12,0,250.5,250.5,61.499,-51.817,-999.00,8.65,-999.0,no,yes,no,300234068342550,SVPGHI,AOML,MARIA_S._MERI,North
2020-09-06T13:00:02Z,1599397203,2020,13,0,250.5417,250.5417,61.5,-51.83,-999.00,8.66,-999.0,no,yes,no,300234068342550,SVPGHI,AOML,MARIA_S._MERI,North
2020-09-06T13:59:57Z,1599400797,2020,14,0,250.5833,250.5833,61.507,-51.844,-999.00,8.7,-999.0,no,yes,no,300234068342550,SVPGHI,AOML,MARIA_S._MERI,North
2020-09-06T15:00:00Z,1599404400,2020,15,0,250.625,250.625,61.509,-51.855,-999.00,8.81,-999.0,no,yes,no,300234068342550,SVPGHI,AOML,MARIA_S._MERI,North
2020-09-06T16:00:02Z,1599408003,2020,16,0,250.6667,250.6667,61.512,-51.867,-999.00,8.79,-999.0,no,yes,no,300234068342550,SVPGHI,AOML,MARIA_S._MERI,North
2020-09-06T16:59:57Z,1599411597,2020,17,0,250.7083,250.7083,61.518,-51.879,-999.00,8.81,-999.0,no,yes,no,300234068342550,SVPGHI,AOML,MARIA_S._MERI,North
2020-09-06T18:00:00Z,1599415200,2020,18,0,250.75,250.75,61.522,-51.892,-999.00,8.78,-999.0,no,yes,no,300234068342550,SVPGHI,AOML,MARIA_S._MERI,North
2020-09-06T19:00:02Z,1599418803,2020,19,0,250.7917,250.7917,61.528,-51.904,-999.00,8.75,-999.0,no,yes,no,300234068342550,SVPGHI,AOML,MARIA_S._MERI,North
2020-09-06T20:00:57Z,1599422458,2020,20,1,250.834,250.834,61.532,-51.918,-999.00,8.73,-999.0,no,yes,no,300234068342550,SVPGHI,AOML,MARIA_S._MERI,North
2020-09-06T21:00:00Z,1599426000,2020,21,0,250.875,250.875,61.538,-51.934,-999.00,8.72,-999.0,no,yes,no,300234068342550,SVPGHI,AOML,MARIA_S._MERI,North
2020-09-06T22:00:02Z,1599429603,2020,22,0,250.9167,250.9167,61.544,-51.95,-999.00,8.71,-999.0,no,yes,no,300234068342550,SVPGHI,AOML,MARIA_S._MERI,North
2020-09-06T22:59:57Z,1599433197,2020,23,0,250.9583,250.9583,61.551,-51.969,-999.00,8.71,-999.0,no,yes,no,300234068342550,SVPGHI,AOML,MARIA_S._MERI,North
2020-09-07T00:00:00Z,1599436800,2020,0,0,251.0,251.0,61.556,-51.993,-999.00,8.7,-999.0,no,yes,no,300234068342550,SVPGHI,AOML,MARIA_S._MERI,North
2020-09-07T01:01:03Z,1599440463,2020,1,1,251.0424,251.0424,61.563,-52.01,-999.00,8.68,-999.0,no,yes,no,300234068342550,SVPGHI,AOML,MARIA_S._MERI,North
2020-09-07T02:01:58Z,1599444118,2020,2,2,251.0847,251.0847,61.566,-52.028,-999.00,8.67,-999.0,no,yes,no,300234068342550,SVPGHI,AOML,MARIA_S._MERI,North
2020-09-07T03:00:00Z,1599447600,2020,3,0,251.125,251.125,61.57,-52.048,-999.00,8.66,-999.0,no,yes,no,300234068342550,SVPGHI,AOML,MARIA_S._MERI,North
2020-09-07T04:00:02Z,1599451203,2020,4,0,251.1667,251.1667,61.573,-52.066,-999.00,8.66,-999.0,no,yes,no,300234068342550,SVPGHI,AOML,MARIA_S._MERI,North
2020-09-07T04:59:57Z,1599454797,2020,5,0,251.2083,251.2083,61.576,-52.087,-999.00,8.65,-999.0,no,yes,no,300234068342550,SVPGHI,AOML,MARIA_S._MERI,North
2020-09-07T06:01:00Z,1599458460,2020,6,1,251.2507,251.2507,61.577,-52.107,-999.00,8.65,-999.0,no,yes,no,300234068342550,SVPGHI,AOML,MARIA_S._MERI,North
2020-09-07T07:00:02Z,1599462003,2020,7,0,251.2917,251.2917,61.583,-52.124,-999.00,8.65,-999.0,no,yes,no,300234068342550,SVPGHI,AOML,MARIA_S._MERI,North
2020-09-07T08:00:57Z,1599465658,2020,8,1,251.334,251.334,61.588,-52.14,-999.00,8.66,-999.0,no,yes,no,300234068342550,SVPGHI,AOML,MARIA_S._MERI,North
2020-09-07T09:00:00Z,1599469200,2020,9,0,251.375,251.375,61.592,-52.158,-999.00,8.64,-999.0,no,yes,no,300234068342550,SVPGHI,AOML,MARIA_S._MERI,North
2020-09-07T10:01:03Z,1599472863,2020,10,1,251.4174,251.4174,61.589,-52.178,-999.00,8.64,-999.0,no,yes,no,300234068342550,SVPGHI,AOML,MARIA_S._MERI,North
2020-09-07T11:03:59Z,1599476639,2020,11,4,251.4611,251.4611,61.6,-52.2,-999.00,8.65,-999.0,no,yes,no,300234068342550,SVPGHI,AOML,MARIA_S._MERI,North
2020-09-07T12:02:00Z,1599480121,2020,12,2,251.5014,251.5014,61.605,-52.221,-999.00,8.65,-999.0,no,yes,no,300234068342550,SVPGHI,AOML,MARIA_S._MERI,North
2020-09-07T13:00:02Z,1599483603,2020,13,0,251.5417,251.5417,61.608,-52.237,-999.00,8.65,-999.0,no,yes,no,300234068342550,SVPGHI,AOML,MARIA_S._MERI,North
2020-09-07T13:59:57Z,1599487197,2020,14,0,251.5833,251.5833,61.61,-52.255,-999.00,8.66,-999.0,no,yes,no,300234068342550,SVPGHI,AOML,MARIA_S._MERI,North
2020-09-07T15:00:00Z,1599490800,2020,15,0,251.625,251.625,61.611,-52.275,-999.00,8.66,-999.0,no,yes,no,300234068342550,SVPGHI,AOML,MARIA_S._MERI,North
2020-09-07T16:00:02Z,1599494403,2020,16,0,251.6667,251.6667,61.613,-52.293,-999.00,8.67,-999.0,no,yes,no,300234068342550,SVPGHI,AOML,MARIA_S._MERI,North
2020-09-07T16:59:57Z,1599497997,2020,17,0,251.7083,251.7083,61.617,-52.308,-999.00,8.67,-999.0,no,yes,no,300234068342550,SVPGHI,AOML,MARIA_S._MERI,North
2020-09-07T18:01:00Z,1599501660,2020,18,1,251.7507,251.7507,61.619,-52.319,-999.00,8.67,-999.0,no,yes,no,300234068342550,SVPGHI,AOML,MARIA_S._MERI,North
2020-09-07T19:01:03Z,1599505263,2020,19,1,251.7924,251.7924,61.623,-52.33,-999.00,8.67,-999.0,no,yes,no,300234068342550,SVPGHI,AOML,MARIA_S._MERI,North
2020-09-07T20:00:57Z,1599508858,2020,20,1,251.834,251.834,61.625,-52.339,-999.00,8.65,-999.0,no,yes,no,300234068342550,SVPGHI,AOML,MARIA_S._MERI,North
2020-09-07T21:00:00Z,1599512400,2020,21,0,251.875,251.875,61.628,-52.348,-999.00,8.65,-999.0,no,yes,no,300234068342550,SVPGHI,AOML,MARIA_S._MERI,North
2020-09-07T22:00:02Z,1599516003,2020,22,0,251.9167,251.9167,61.631,-52.36,-999.00,8.65,-999.0,no,yes,no,300234068342550,SVPGHI,AOML,MARIA_S._MERI,North
2020-09-07T22:59:57Z,1599519597,2020,23,0,251.9583,251.9583,61.635,-52.374,-999.00,8.59,-999.0,no,yes,no,300234068342550,SVPGHI,AOML,MARIA_S._MERI,North
2020-09-08T00:01:00Z,1599523260,2020,0,1,252.0007,252.0007,61.639,-52.392,-999.00,8.5,-999.0,no,yes,no,300234068342550,SVPGHI,AOML,MARIA_S._MERI,North
2020-09-08T01:00:02Z,1599526803,2020,1,0,252.0417,252.0417,61.643,-52.406,-999.00,8.42,-999.0,no,yes,no,300234068342550,SVPGHI,AOML,MARIA_S._MERI,North
2020-09-08T01:59:57Z,1599530397,2020,2,0,252.0833,252.0833,61.648,-52.417,-999.00,8.35,-999.0,no,yes,no,300234068342550,SVPGHI,AOML,MARIA_S._MERI,North
2020-09-08T03:00:00Z,1599534000,2020,3,0,252.125,252.125,61.652,-52.428,-999.00,8.4,-999.0,no,yes,no,300234068342550,SVPGHI,AOML,MARIA_S._MERI,North
2020-09-08T04:02:03Z,1599537724,2020,4,2,252.1681,252.1681,61.656,-52.437,-999.00,8.39,-999.0,no,yes,no,300234068342550,SVPGHI,AOML,MARIA_S._MERI,North
2020-09-08T04:59:57Z,1599541197,2020,5,0,252.2083,252.2083,61.66,-52.442,-999.00,8.32,-999.0,no,yes,no,300234068342550,SVPGHI,AOML,MARIA_S._MERI,North
2020-09-08T06:00:00Z,1599544800,2020,6,0,252.25,252.25,61.668,-52.446,-999.00,8.27,-999.0,no,yes,no,300234068342550,SVPGHI,AOML,MARIA_S._MERI,North
2020-09-08T07:00:02Z,1599548403,2020,7,0,252.2917,252.2917,61.677,-52.455,-999.00,8.29,-999.0,no,yes,no,300234068342550,SVPGHI,AOML,MARIA_S._MERI,North
2020-09-08T07:59:57Z,1599551997,2020,8,0,252.3333,252.3333,61.683,-52.466,-999.00,8.29,-999.0,no,yes,no,300234068342550,SVPGHI,AOML,MARIA_S._MERI,North
2020-09-08T09:00:00Z,1599555600,2020,9,0,252.375,252.375,61.687,-52.479,-999.00,8.35,-999.0,no,yes,no,300234068342550,SVPGHI,AOML,MARIA_S._MERI,North
2020-09-08T10:01:03Z,1599559263,2020,10,1,252.4174,252.4174,61.69,-52.495,-999.00,8.33,-999.0,no,yes,no,300234068342550,SVPGHI,AOML,MARIA_S._MERI,North
2020-09-08T10:59:57Z,1599562797,2020,11,0,252.4583,252.4583,61.694,-52.511,-999.00,8.31,-999.0,no,yes,no,300234068342550,SVPGHI,AOML,MARIA_S._MERI,North
2020-09-08T12:00:00Z,1599566400,2020,12,0,252.5,252.5,61.701,-52.525,-999.00,8.32,-999.0,no,yes,no,300234068342550,SVPGHI,AOML,MARIA_S._MERI,North
2020-09-08T13:00:02Z,1599570003,2020,13,0,252.5417,252.5417,61.709,-52.538,-999.00,8.31,-999.0,no,yes,no,300234068342550,SVPGHI,AOML,MARIA_S._MERI,North
2020-09-08T13:59:57Z,1599573597,2020,14,0,252.5833,252.5833,61.719,-52.549,-999.00,8.3,-999.0,no,yes,no,300234068342550,SVPGHI,AOML,MARIA_S._MERI,North
2020-09-08T15:00:00Z,1599577200,2020,15,0,252.625,252.625,61.726,-52.566,-999.00,8.29,-999.0,no,yes,no,300234068342550,SVPGHI,AOML,MARIA_S._MERI,North
2020-09-08T16:00:02Z,1599580803,2020,16,0,252.6667,252.6667,61.736,-52.578,-999.00,8.28,-999.0,no,yes,no,300234068342550,SVPGHI,AOML,MARIA_S._MERI,North
2020-09-08T16:59:57Z,1599584397,2020,17,0,252.7083,252.7083,61.744,-52.596,-999.00,8.29,-999.0,no,yes,no,300234068342550,SVPGHI,AOML,MARIA_S._MERI,North
2020-09-08T18:00:00Z,1599588000,2020,18,0,252.75,252.75,61.75,-52.61,-999.00,8.31,-999.0,no,yes,no,300234068342550,SVPGHI,AOML,MARIA_S._MERI,North
2020-09-08T19:00:02Z,1599591603,2020,19,0,252.7917,252.7917,61.757,-52.63,-999.00,8.33,-999.0,no,yes,no,300234068342550,SVPGHI,AOML,MARIA_S._MERI,North
2020-09-08T19:59:57Z,1599595197,2020,20,0,252.8333,252.8333,61.767,-52.65,-999.00,8.33,-999.0,no,yes,no,300234068342550,SVPGHI,AOML,MARIA_S._MERI,North
2020-09-08T21:00:00Z,1599598800,2020,21,0,252.875,252.875,61.778,-52.671,-999.00,8.3,-999.0,no,yes,no,300234068342550,SVPGHI,AOML,MARIA_S._MERI,North
2020-09-08T22:00:02Z,1599602403,2020,22,0,252.9167,252.9167,61.789,-52.692,-999.00,8.33,-999.0,no,yes,no,300234068342550,SVPGHI,AOML,MARIA_S._MERI,North
2020-09-08T22:59:57Z,1599605997,2020,23,0,252.9583,252.9583,61.802,-52.712,-999.00,8.34,-999.0,no,yes,no,300234068342550,SVPGHI,AOML,MARIA_S._MERI,North
2020-09-09T00:00:00Z,1599609600,2020,0,0,253.0,253.0,61.816,-52.726,-999.00,8.33,-999.0,no,yes,no,300234068342550,SVPGHI,AOML,MARIA_S._MERI,North
2020-09-09T01:00:02Z,1599613203,2020,1,0,253.0417,253.0417,61.831,-52.74,-999.00,8.35,-999.0,no,yes,no,300234068342550,SVPGHI,AOML,MARIA_S._MERI,North
2020-09-09T02:01:58Z,1599616918,2020,2,2,253.0847,253.0847,61.835,-52.741,-999.00,8.36,-999.0,no,yes,no,300234068342550,SVPGHI,AOML,MARIA_S._MERI,North
2020-09-09T03:00:00Z,1599620400,2020,3,0,253.125,253.125,61.835,-52.738,-999.00,8.37,-999.0,no,yes,no,300234068342550,SVPGHI,AOML,MARIA_S._MERI,North
2020-09-09T04:02:55Z,1599624176,2020,4,3,253.1687,253.1687,61.833,-52.747,-999.00,8.37,-999.0,no,yes,no,300234068342550,SVPGHI,AOML,MARIA_S._MERI,North
2020-09-09T04:59:57Z,1599627597,2020,5,0,253.2083,253.2083,61.828,-52.761,-999.00,8.38,-999.0,no,yes,no,300234068342550,SVPGHI,AOML,MARIA_S._MERI,North
2020-09-09T06:00:00Z,1599631200,2020,6,0,253.25,253.25,61.825,-52.778,-999.00,8.38,-999.0,no,yes,no,300234068342550,SVPGHI,AOML,MARIA_S._MERI,North
2020-09-09T07:00:02Z,1599634803,2020,7,0,253.2917,253.2917,61.821,-52.803,-999.00,8.39,-999.0,no,yes,no,300234068342550,SVPGHI,AOML,MARIA_S._MERI,North
2020-09-09T07:59:57Z,1599638397,2020,8,0,253.3333,253.3333,61.821,-52.828,-999.00,8.37,-999.0,no,yes,no,300234068342550,SVPGHI,AOML,MARIA_S._MERI,North
2020-09-09T09:00:00Z,1599642000,2020,9,0,253.375,253.375,61.823,-52.853,-999.00,8.39,-999.0,no,yes,no,300234068342550,SVPGHI,AOML,MARIA_S._MERI,North
2020-09-09T10:00:02Z,1599645603,2020,10,0,253.4167,253.4167,61.828,-52.877,-999.00,8.37,-999.0,no,yes,no,300234068342550,SVPGHI,AOML,MARIA_S._MERI,North
2020-09-09T10:59:57Z,1599649197,2020,11,0,253.4583,253.4583,61.835,-52.895,-999.00,8.39,-999.0,no,yes,no,300234068342550,SVPGHI,AOML,MARIA_S._MERI,North
2020-09-09T12:02:00Z,1599652921,2020,12,2,253.5014,253.5014,61.845,-52.908,-999.00,8.36,-999.0,no,yes,no,300234068342550,SVPGHI,AOML,MARIA_S._MERI,North
2020-09-09T13:00:02Z,1599656403,2020,13,0,253.5417,253.5417,61.853,-52.918,-999.00,8.3,-999.0,no,yes,no,300234068342550,SVPGHI,AOML,MARIA_S._MERI,North
2020-09-09T13:59:57Z,1599659997,2020,14,0,253.5833,253.5833,61.857,-52.924,-999.00,8.29,-999.0,no,yes,no,300234068342550,SVPGHI,AOML,MARIA_S._MERI,North
2020-09-09T15:00:00Z,1599663600,2020,15,0,253.625,253.625,61.857,-52.927,-999.00,8.32,-999.0,no,yes,no,300234068342550,SVPGHI,AOML,MARIA_S._MERI,North
2020-09-09T16:01:03Z,1599667263,2020,16,1,253.6674,253.6674,61.855,-52.934,-999.00,8.35,-999.0,no,yes,no,300234068342550,SVPGHI,AOML,MARIA_S._MERI,North
2020-09-09T16:59:57Z,1599670797,2020,17,0,253.7083,253.7083,61.853,-52.944,-999.00,8.38,-999.0,no,yes,no,300234068342550,SVPGHI,AOML,MARIA_S._MERI,North
2020-09-09T18:00:00Z,1599674400,2020,18,0,253.75,253.75,61.85,-52.958,-999.00,8.38,-999.0,no,yes,no,300234068342550,SVPGHI,AOML,MARIA_S._MERI,North
2020-09-09T19:00:02Z,1599678003,2020,19,0,253.7917,253.7917,61.845,-52.972,-999.00,8.38,-999.0,no,yes,no,300234068342550,SVPGHI,AOML,MARIA_S._MERI,North
2020-09-09T19:59:57Z,1599681597,2020,20,0,253.8333,253.8333,61.842,-52.989,-999.00,8.38,-999.0,no,yes,no,300234068342550,SVPGHI,AOML,MARIA_S._MERI,North
2020-09-09T21:01:00Z,1599685260,2020,21,1,253.8757,253.8757,61.839,-53.013,-999.00,8.38,-999.0,no,yes,no,300234068342550,SVPGHI,AOML,MARIA_S._MERI,North
2020-09-09T22:00:02Z,1599688803,2020,22,0,253.9167,253.9167,61.84,-53.036,-999.00,8.36,-999.0,no,yes,no,300234068342550,SVPGHI,AOML,MARIA_S._MERI,North
2020-09-09T22:59:57Z,1599692397,2020,23,0,253.9583,253.9583,61.846,-53.061,-999.00,8.36,-999.0,no,yes,no,300234068342550,SVPGHI,AOML,MARIA_S._MERI,North
2020-09-10T00:04:01Z,1599696242,2020,0,4,254.0028,254.0028,61.854,-53.081,-999.00,8.36,-999.0,no,yes,no,300234068342550,SVPGHI,AOML,MARIA_S._MERI,North
2020-09-10T01:02:03Z,1599699724,2020,1,2,254.0431,254.0431,61.862,-53.091,-999.00,8.35,-999.0,no,yes,no,300234068342550,SVPGHI,AOML,MARIA_S._MERI,North
2020-09-10T01:59:57Z,1599703197,2020,2,0,254.0833,254.0833,61.869,-53.097,-999.00,8.35,-999.0,no,yes,no,300234068342550,SVPGHI,AOML,MARIA_S._MERI,North
2020-09-10T03:00:00Z,1599706800,2020,3,0,254.125,254.125,61.875,-53.1,-999.00,8.34,-999.0,no,yes,no,300234068342550,SVPGHI,AOML,MARIA_S._MERI,North
2020-09-10T04:00:02Z,1599710403,2020,4,0,254.1667,254.1667,61.878,-53.101,-999.00,8.34,-999.0,no,yes,no,300234068342550,SVPGHI,AOML,MARIA_S._MERI,North
2020-09-10T04:59:57Z,1599713997,2020,5,0,254.2083,254.2083,61.878,-53.1,-999.00,8.34,-999.0,no,yes,no,300234068342550,SVPGHI,AOML,MARIA_S._MERI,North
2020-09-10T06:01:00Z,1599717660,2020,6,1,254.2507,254.2507,61.875,-53.102,-999.00,8.33,-999.0,no,yes,no,300234068342550,SVPGHI,AOML,MARIA_S._MERI,North
2020-09-10T07:00:02Z,1599721203,2020,7,0,254.2917,254.2917,61.872,-53.108,-999.00,8.33,-999.0,no,yes,no,300234068342550,SVPGHI,AOML,MARIA_S._MERI,North
2020-09-10T08:02:58Z,1599724979,2020,8,3,254.3354,254.3354,61.868,-53.123,-999.00,8.32,-999.0,no,yes,no,300234068342550,SVPGHI,AOML,MARIA_S._MERI,North
2020-09-10T09:01:00Z,1599728460,2020,9,1,254.3757,254.3757,61.867,-53.136,-999.00,8.32,-999.0,no,yes,no,300234068342550,SVPGHI,AOML,MARIA_S._MERI,North
2020-09-10T10:00:02Z,1599732003,2020,10,0,254.4167,254.4167,61.869,-53.157,-999.00,8.31,-999.0,no,yes,no,300234068342550,SVPGHI,AOML,MARIA_S._MERI,North
2020-09-10T10:59:57Z,1599735597,2020,11,0,254.4583,254.4583,61.873,-53.177,-999.00,8.33,-999.0,no,yes,no,300234068342550,SVPGHI,AOML,MARIA_S._MERI,North
2020-09-10T12:00:00Z,1599739200,2020,12,0,254.5,254.5,61.879,-53.195,-999.00,8.32,-999.0,no,yes,no,300234068342550,SVPGHI,AOML,MARIA_S._MERI,North
2020-09-10T13:00:02Z,1599742803,2020,13,0,254.5417,254.5417,61.886,-53.209,-999.00,8.32,-999.0,no,yes,no,300234068342550,SVPGHI,AOML,MARIA_S._MERI,North
2020-09-10T13:59:57Z,1599746397,2020,14,0,254.5833,254.5833,61.894,-53.221,-999.00,8.31,-999.0,no,yes,no,300234068342550,SVPGHI,AOML,MARIA_S._MERI,North
2020-09-10T15:00:00Z,1599750000,2020,15,0,254.625,254.625,61.9,-53.226,-999.00,8.35,-999.0,no,yes,no,300234068342550,SVPGHI,AOML,MARIA_S._MERI,North
2020-09-10T16:00:02Z,1599753603,2020,16,0,254.6667,254.6667,61.904,-53.23,-999.00,8.36,-999.0,no,yes,no,300234068342550,SVPGHI,AOML,MARIA_S._MERI,North
2020-09-10T16:59:57Z,1599757197,2020,17,0,254.7083,254.7083,61.906,-53.233,-999.00,8.37,-999.0,no,yes,no,300234068342550,SVPGHI,AOML,MARIA_S._MERI,North
2020-09-10T18:00:00Z,1599760800,2020,18,0,254.75,254.75,61.904,-53.237,-999.00,8.38,-999.0,no,yes,no,300234068342550,SVPGHI,AOML,MARIA_S._MERI,North
2020-09-10T19:02:55Z,1599764576,2020,19,3,254.7937,254.7937,61.9,-53.249,-999.00,8.4,-999.0,no,yes,no,300234068342550,SVPGHI,AOML,MARIA_S._MERI,North
2020-09-10T19:59:57Z,1599767997,2020,20,0,254.8333,254.8333,61.898,-53.261,-999.00,8.39,-999.0,no,yes,no,300234068342550,SVPGHI,AOML,MARIA_S._MERI,North
2020-09-10T21:00:00Z,1599771600,2020,21,0,254.875,254.875,61.897,-53.279,-999.00,8.38,-999.0,no,yes,no,300234068342550,SVPGHI,AOML,MARIA_S._MERI,North
2020-09-10T22:01:03Z,1599775263,2020,22,1,254.9174,254.9174,61.898,-53.299,-999.00,8.37,-999.0,no,yes,no,300234068342550,SVPGHI,AOML,MARIA_S._MERI,North
2020-09-10T22:59:57Z,1599778797,2020,23,0,254.9583,254.9583,61.902,-53.318,-999.00,8.36,-999.0,no,yes,no,300234068342550,SVPGHI,AOML,MARIA_S._MERI,North
2020-09-11T00:00:00Z,1599782400,2020,0,0,255.0,255.0,61.909,-53.334,-999.00,8.35,-999.0,no,yes,no,300234068342550,SVPGHI,AOML,MARIA_S._MERI,North
2020-09-11T01:00:02Z,1599786003,2020,1,0,255.0417,255.0417,61.916,-53.343,-999.00,8.33,-999.0,no,yes,no,300234068342550,SVPGHI,AOML,MARIA_S._MERI,North
2020-09-11T01:59:57Z,1599789597,2020,2,0,255.0833,255.0833,61.924,-53.35,-999.00,8.35,-999.0,no,yes,no,300234068342550,SVPGHI,AOML,MARIA_S._MERI,North
2020-09-11T03:00:00Z,1599793200,2020,3,0,255.125,255.125,61.93,-53.354,-999.00,8.36,-999.0,no,yes,no,300234068342550,SVPGHI,AOML,MARIA_S._MERI,North
2020-09-11T04:00:02Z,1599796803,2020,4,0,255.1667,255.1667,61.933,-53.354,-999.00,8.35,-999.0,no,yes,no,300234068342550,SVPGHI,AOML,MARIA_S._MERI,North
2020-09-11T04:59:57Z,1599800397,2020,5,0,255.2083,255.2083,61.933,-53.355,-999.00,8.33,-999.0,no,yes,no,300234068342550,SVPGHI,AOML,MARIA_S._MERI,North
2020-09-11T06:00:00Z,1599804000,2020,6,0,255.25,255.25,61.932,-53.359,-999.00,8.3,-999.0,no,yes,no,300234068342550,SVPGHI,AOML,MARIA_S._MERI,North
2020-09-11T07:00:02Z,1599807603,2020,7,0,255.2917,255.2917,61.933,-53.366,-999.00,8.11,-999.0,no,yes,no,300234068342550,SVPGHI,AOML,MARIA_S._MERI,North
2020-09-11T07:59:57Z,1599811197,2020,8,0,255.3333,255.3333,61.935,-53.376,-999.00,8.08,-999.0,no,yes,no,300234068342550,SVPGHI,AOML,MARIA_S._MERI,North
2020-09-11T09:01:00Z,1599814860,2020,9,1,255.3757,255.3757,61.94,-53.392,-999.00,7.94,-999.0,no,yes,no,300234068342550,SVPGHI,AOML,MARIA_S._MERI,North
2020-09-11T10:00:02Z,1599818403,2020,10,0,255.4167,255.4167,61.945,-53.406,-999.00,7.85,-999.0,no,yes,no,300234068342550,SVPGHI,AOML,MARIA_S._MERI,North
2020-09-11T10:59:57Z,1599821997,2020,11,0,255.4583,255.4583,61.953,-53.417,-999.00,7.84,-999.0,no,yes,no,300234068342550,SVPGHI,AOML,MARIA_S._MERI,North
2020-09-11T12:01:00Z,1599825660,2020,12,1,255.5007,255.5007,61.958,-53.43,-999.00,7.86,-999.0,no,yes,no,300234068342550,SVPGHI,AOML,MARIA_S._MERI,North
2020-09-11T13:00:02Z,1599829203,2020,13,0,255.5417,255.5417,61.963,-53.447,-999.00,7.83,-999.0,no,yes,no,300234068342550,SVPGHI,AOML,MARIA_S._MERI,North
2020-09-11T13:59:57Z,1599832797,2020,14,0,255.5833,255.5833,61.971,-53.46,-999.00,7.8,-999.0,no,yes,no,300234068342550,SVPGHI,AOML,MARIA_S._MERI,North
2020-09-11T15:00:00Z,1599836400,2020,15,0,255.625,255.625,61.978,-53.48,-999.00,7.74,-999.0,no,yes,no,300234068342550,SVPGHI,AOML,MARIA_S._MERI,North
2020-09-11T16:00:02Z,1599840003,2020,16,0,255.6667,255.6667,61.985,-53.498,-999.00,7.71,-999.0,no,yes,no,300234068342550,SVPGHI,AOML,MARIA_S._MERI,North
2020-09-11T16:59:57Z,1599843597,2020,17,0,255.7083,255.7083,61.994,-53.515,-999.00,7.69,-999.0,no,yes,no,300234068342550,SVPGHI,AOML,MARIA_S._MERI,North
2020-09-11T18:00:00Z,1599847200,2020,18,0,255.75,255.75,61.999,-53.523,-999.00,7.67,-999.0,no,yes,no,300234068342550,SVPGHI,AOML,MARIA_S._MERI,North
2020-09-11T19:02:03Z,1599850924,2020,19,2,255.7931,255.7931,62.005,-53.53,-999.00,7.64,-999.0,no,yes,no,300234068342550,SVPGHI,AOML,MARIA_S._MERI,North
2020-09-11T19:59:57Z,1599854397,2020,20,0,255.8333,255.8333,62.007,-53.538,-999.00,7.62,-999.0,no,yes,no,300234068342550,SVPGHI,AOML,MARIA_S._MERI,North
2020-09-11T21:00:00Z,1599858000,2020,21,0,255.875,255.875,62.009,-53.549,-999.00,7.63,-999.0,no,yes,no,300234068342550,SVPGHI,AOML,MARIA_S._MERI,North
2020-09-11T22:00:02Z,1599861603,2020,22,0,255.9167,255.9167,62.009,-53.563,-999.00,7.66,-999.0,no,yes,no,300234068342550,SVPGHI,AOML,MARIA_S._MERI,North
2020-09-11T23:01:58Z,1599865318,2020,23,2,255.9597,255.9597,62.012,-53.571,-999.00,7.75,-999.0,no,yes,no,300234068342550,SVPGHI,AOML,MARIA_S._MERI,North
2020-09-12T00:00:00Z,1599868800,2020,0,0,256.0,256.0,62.012,-53.587,-999.00,7.89,-999.0,no,yes,no,300234068342550,SVPGHI,AOML,MARIA_S._MERI,North
2020-09-12T01:00:02Z,1599872403,2020,1,0,256.0417,256.0417,62.015,-53.608,-999.00,7.93,-999.0,no,yes,no,300234068342550,SVPGHI,AOML,MARIA_S._MERI,North
2020-09-12T01:59:57Z,1599875997,2020,2,0,256.0833,256.0833,62.019,-53.633,-999.00,7.8,-999.0,no,yes,no,300234068342550,SVPGHI,AOML,MARIA_S._MERI,North
2020-09-12T03:00:00Z,1599879600,2020,3,0,256.125,256.125,62.026,-53.652,-999.00,7.7,-999.0,no,yes,no,300234068342550,SVPGHI,AOML,MARIA_S._MERI,North
2020-09-12T04:00:02Z,1599883203,2020,4,0,256.1667,256.1667,62.032,-53.661,-999.00,7.66,-999.0,no,yes,no,300234068342550,SVPGHI,AOML,MARIA_S._MERI,North
2020-09-12T04:59:57Z,1599886797,2020,5,0,256.2083,256.2083,62.035,-53.671,-999.00,7.68,-999.0,no,yes,no,300234068342550,SVPGHI,AOML,MARIA_S._MERI,North
2020-09-12T06:00:00Z,1599890400,2020,6,0,256.25,256.25,62.04,-53.685,-999.00,7.64,-999.0,no,yes,no,300234068342550,SVPGHI,AOML,MARIA_S._MERI,North